This is the latest recevied weather packets stored in our database for station/object W6MAF. If no packets are shown the sender has not sent any weather packets the latest 10 day(s).
| Time | Temp. | Humidity | Pressure | Rain* | Wind** | Luminosity | Snow |
|---|---|---|---|---|---|---|---|
| 1788291202 | 25.56° C | 5% | - | 0 mm | 6.71 m/s, 170° | - | - |
| 1788290905 | 25.56° C | 5% | - | 0 mm | 8.05 m/s, 188° | - | - |
| 1788290607 | 25.56° C | 4% | - | 0 mm | 4.92 m/s, 183° | - | - |
| 1788290306 | 25.56° C | 5% | - | 0 mm | 7.15 m/s, 184° | - | - |
| 1788290008 | 25° C | 5% | - | 0 mm | 6.71 m/s, 166° | - | - |
| 1788289711 | 25° C | 5% | - | 0 mm | 6.26 m/s, 186° | - | - |
| 1788289413 | 24.44° C | 5% | - | 0 mm | 6.26 m/s, 183° | - | - |
| 1788289115 | 24.44° C | 5% | - | 0 mm | 5.36 m/s, 159° | - | - |
| 1788288817 | 24.44° C | 5% | - | 0 mm | 5.81 m/s, 181° | - | - |
| 1788288516 | 24.44° C | 6% | - | 0 mm | 8.05 m/s, 166° | - | - |
| 1788288219 | 23.89° C | 6% | - | 0 mm | 5.36 m/s, 166° | - | - |
| 1788287921 | 23.89° C | 6% | - | 0 mm | 8.94 m/s, 183° | - | - |
| 1788287623 | 23.89° C | 6% | - | 0 mm | 6.26 m/s, 160° | - | - |
| 1788287326 | 23.89° C | 5% | - | 0 mm | 7.15 m/s, 191° | - | - |
| 1788287028 | 23.89° C | 5% | - | 0 mm | 6.71 m/s, 141° | - | - |
| 1788286727 | 23.89° C | 5% | - | 0 mm | 6.71 m/s, 149° | - | - |
| 1788286429 | 23.89° C | 5% | - | 0 mm | 5.36 m/s, 167° | - | - |
| 1788286132 | 23.89° C | 5% | - | 0 mm | 7.15 m/s, 180° | - | - |
| 1788285834 | 23.89° C | 5% | - | 0 mm | 8.05 m/s, 177° | - | - |
| 1788285536 | 23.89° C | 5% | - | 0 mm | 6.26 m/s, 183° | - | - |
| 1788285238 | 23.89° C | 5% | - | 0 mm | 6.26 m/s, 184° | - | - |
| 1788284937 | 23.33° C | 5% | - | 0 mm | 6.26 m/s, 204° | - | - |
| 1788284640 | 23.33° C | 5% | - | 0 mm | 5.36 m/s, 208° | - | - |
| 1788284382 | 23.33° C | 5% | - | 0 mm | 4.02 m/s, 163° | - | - |
| 1788284342 | 23.33° C | 5% | - | 0 mm | 4.02 m/s, 163° | - | - |
* Rain latest hour (hover to see other rain measurements)
** Current wind speed in m/s (hover to see current wind gust speed)